| time (UTC) | temp C | wind direction | speed KPH | gust KPH | rain 1hr cm | rain 24hr cm | rain mn cm | humidity % | barometer mb |
| 20260505070505 | 9 | 229 | 0.0 | 0.0 | 0.00 | 0.00 | 0.00 | 91 | 1013.7 |
| 20260505070005 | 9 | 229 | 0.0 | 0.0 | 0.00 | 0.00 | 0.00 | 90 | 1013.7 |
| 20260505065506 | 10 | 229 | 0.0 | 0.0 | 0.00 | 0.00 | 0.00 | 91 | 1013.7 |
| 20260505064505 | 10 | 229 | 0.0 | 0.0 | 0.00 | 0.00 | 0.00 | 90 | 1013.7 |
| 20260505064006 | 10 | 229 | 0.0 | 0.0 | 0.00 | 0.00 | 0.00 | 90 | 1014.2 |
| 20260505063505 | 10 | 229 | 0.0 | 0.0 | 0.00 | 0.00 | 0.00 | 90 | 1014.2 |
| 20260505063005 | 10 | 229 | 0.0 | 0.0 | 0.00 | 0.00 | 0.00 | 90 | 1014.2 |
| 20260505062505 | 10 | 229 | 0.0 | 0.0 | 0.00 | 0.00 | 0.00 | 90 | 1014.2 |
| 20260505062005 | 10 | 229 | 0.0 | 0.0 | 0.00 | 0.00 | 0.00 | 90 | 1014.2 |
| 20260505061505 | 10 | 229 | 0.0 | 0.0 | 0.00 | 0.00 | 0.00 | 89 | 1014.2 |
| 20260505061005 | 10 | 229 | 0.0 | 0.0 | 0.00 | 0.00 | 0.00 | 89 | 1014.2 |
| 20260505060505 | 10 | 229 | 0.0 | 0.0 | 0.00 | 0.00 | 0.00 | 89 | 1014.2 |
| 20260505060005 | 10 | 229 | 0.0 | 0.0 | 0.00 | 0.00 | 0.00 | 89 | 1014.2 |
| 20260505055505 | 10 | 229 | 0.0 | 0.0 | 0.00 | 0.00 | 0.00 | 89 | 1014.2 |
| 20260505055005 | 10 | 229 | 0.0 | 0.0 | 0.00 | 0.00 | 0.00 | 89 | 1014.2 |
| 20260505054504 | 10 | 229 | 0.0 | 0.0 | 0.00 | 0.00 | 0.00 | 89 | 1014.2 |
| 20260505053505 | 10 | 229 | 0.0 | 0.0 | 0.00 | 0.00 | 0.00 | 89 | 1014.2 |
| 20260505053005 | 11 | 229 | 0.0 | 0.0 | 0.00 | 0.00 | 0.00 | 88 | 1014.2 |
| 20260505052506 | 11 | 229 | 0.0 | 0.0 | 0.00 | 0.00 | 0.00 | 88 | 1014.2 |
| 20260505052005 | 11 | 229 | 0.0 | 0.0 | 0.00 | 0.00 | 0.00 | 88 | 1014.2 |
| 20260505051505 | 11 | 229 | 0.0 | 0.0 | 0.00 | 0.00 | 0.00 | 88 | 1014.2 |
| 20260505051005 | 11 | 229 | 0.0 | 0.0 | 0.00 | 0.00 | 0.00 | 88 | 1014.2 |
| 20260505050505 | 11 | 229 | 0.0 | 0.0 | 0.00 | 0.00 | 0.00 | 88 | 1014.2 |
| 20260505041505 | 11 | 177 | 0.0 | 0.0 | 0.00 | 0.00 | 0.00 | 85 | 1014.0 |
| 20260505041005 | 12 | 177 | 0.0 | 0.0 | 0.00 | 0.00 | 0.00 | 84 | 1014.0 |
| 20260505040506 | 12 | 177 | 0.0 | 0.0 | 0.00 | 0.00 | 0.00 | 84 | 1014.0 |
| 20260505040005 | 12 | 177 | 0.0 | 0.0 | 0.00 | 0.00 | 0.00 | 84 | 1014.2 |
| 20260505035506 | 12 | 177 | 0.0 | 0.0 | 0.00 | 0.00 | 0.00 | 83 | 1014.2 |
| 20260505035006 | 12 | 177 | 0.0 | 0.0 | 0.00 | 0.00 | 0.00 | 83 | 1014.2 |
| 20260505034504 | 12 | 177 | 0.0 | 0.0 | 0.00 | 0.00 | 0.00 | 83 | 1014.2 |
| 20260505034005 | 12 | 177 | 0.0 | 0.0 | 0.00 | 0.00 | 0.00 | 83 | 1014.2 |
| 20260505033505 | 12 | 177 | 0.0 | 0.0 | 0.00 | 0.00 | 0.00 | 82 | 1014.2 |
| 20260505033006 | 12 | 177 | 0.0 | 0.0 | 0.00 | 0.00 | 0.00 | 82 | 1014.2 |
| 20260505032506 | 12 | 177 | 0.0 | 0.0 | 0.00 | 0.00 | 0.00 | 81 | 1014.2 |
| 20260505032005 | 13 | 177 | 0.0 | 0.0 | 0.00 | 0.00 | 0.00 | 81 | 1014.2 |
| 20260505031506 | 13 | 177 | 0.0 | 0.0 | 0.00 | 0.00 | 0.00 | 81 | 1014.2 |
| 20260505031005 | 13 | 177 | 0.0 | 0.0 | 0.00 | 0.00 | 0.00 | 80 | 1014.2 |
| 20260505030505 | 13 | 177 | 0.0 | 0.0 | 0.00 | 0.00 | 0.00 | 80 | 1014.2 |
| 20260505030005 | 13 | 177 | 0.0 | 0.0 | 0.00 | 0.00 | 0.00 | 79 | 1013.3 |
| 20260505025007 | 13 | 177 | 0.0 | 0.0 | 0.00 | 0.00 | 0.00 | 78 | 1013.3 |
| 20260505024506 | 13 | 177 | 0.0 | 0.0 | 0.00 | 0.00 | 0.00 | 77 | 1013.3 |
| 20260505024005 | 14 | 177 | 0.0 | 0.0 | 0.00 | 0.00 | 0.00 | 77 | 1013.3 |
| 20260505023506 | 14 | 177 | 0.0 | 0.0 | 0.00 | 0.00 | 0.00 | 77 | 1013.3 |
| 20260505023006 | 14 | 177 | 0.0 | 0.0 | 0.00 | 0.00 | 0.00 | 76 | 1013.3 |
| 20260505022504 | 14 | 177 | 0.0 | 0.0 | 0.00 | 0.00 | 0.00 | 75 | 1013.3 |
| 20260505021505 | 15 | 177 | 0.0 | 1.6 | 0.00 | 0.00 | 0.00 | 74 | 1013.3 |
| 20260505021005 | 15 | 177 | 0.0 | 0.0 | 0.00 | 0.00 | 0.00 | 73 | 1013.3 |
| 20260505020505 | 15 | 177 | 0.0 | 0.0 | 0.00 | 0.00 | 0.00 | 72 | 1013.3 |
| 20260505020005 | 15 | 177 | 0.0 | 0.0 | 0.00 | 0.00 | 0.00 | 71 | 1013.3 |
| 20260505015505 | 15 | 177 | 0.0 | 0.0 | 0.00 | 0.00 | 0.00 | 70 | 1013.3 |
| 20260505015006 | 15 | 177 | 0.0 | 0.0 | 0.00 | 0.00 | 0.00 | 69 | 1013.3 |
| 20260505014506 | 16 | 177 | 0.0 | 0.0 | 0.00 | 0.00 | 0.00 | 68 | 1013.3 |
| 20260505014005 | 16 | 177 | 0.0 | 0.0 | 0.00 | 0.00 | 0.00 | 67 | 1013.3 |
| 20260505013505 | 16 | 177 | 0.0 | 0.0 | 0.00 | 0.00 | 0.00 | 66 | 1013.3 |
| 20260505013005 | 16 | 177 | 0.0 | 0.0 | 0.00 | 0.00 | 0.00 | 65 | 1013.3 |
| 20260505012506 | 17 | 177 | 0.0 | 0.0 | 0.00 | 0.00 | 0.00 | 64 | 1013.3 |
| 20260505012005 | 17 | 177 | 0.0 | 0.0 | 0.00 | 0.00 | 0.00 | 63 | 1013.3 |
| 20260505011510 | 17 | 177 | 0.0 | 0.0 | 0.00 | 0.00 | 0.00 | 62 | 1013.3 |
| 20260505011005 | 17 | 177 | 0.0 | 0.0 | 0.00 | 0.00 | 0.00 | 61 | 1013.3 |
| 20260505010505 | 18 | 177 | 0.0 | 0.0 | 0.00 | 0.00 | 0.00 | 60 | 1013.3 |
| 20260505010006 | 18 | 177 | 0.0 | 0.0 | 0.00 | 0.00 | 0.00 | 58 | 1013.1 |
| 20260505005005 | 18 | 177 | 0.0 | 0.0 | 0.00 | 0.00 | 0.00 | 57 | 1013.1 |
| 20260505004505 | 19 | 177 | 0.0 | 0.0 | 0.00 | 0.00 | 0.00 | 56 | 1013.1 |
| 20260505004006 | 20 | 177 | 0.0 | 0.0 | 0.00 | 0.00 | 0.00 | 53 | 1013.1 |
| 20260505003506 | 20 | 177 | 0.0 | 0.0 | 0.00 | 0.00 | 0.00 | 48 | 1013.1 |
| 20260505003006 | 20 | 177 | 0.0 | 0.0 | 0.00 | 0.00 | 0.00 | 46 | 1013.1 |
| 20260505002505 | 21 | 177 | 0.0 | 0.0 | 0.00 | 0.00 | 0.00 | 45 | 1013.1 |
| 20260505002005 | 21 | 177 | 0.0 | 1.6 | 0.00 | 0.00 | 0.00 | 43 | 1013.1 |
| 20260505001505 | 22 | 122 | 0.0 | 3.2 | 0.00 | 0.00 | 0.00 | 42 | 1013.1 |
| 20260505001005 | 22 | 117 | 1.6 | 4.8 | 0.00 | 0.00 | 0.00 | 42 | 1013.1 |
| 20260505000506 | 22 | 121 | 0.0 | 3.2 | 0.00 | 0.00 | 0.00 | 41 | 1013.1 |
| 20260504235505 | 22 | 137 | 1.6 | 4.8 | 0.00 | 0.00 | 0.00 | 41 | 1013.1 |
| 20260504235006 | 22 | 4 | 0.0 | 4.8 | 0.00 | 0.00 | 0.00 | 41 | 1013.1 |
| 20260504234505 | 23 | 124 | 1.6 | 4.8 | 0.00 | 0.00 | 0.00 | 40 | 1013.1 |
| 20260504234005 | 23 | 151 | 3.2 | 8.0 | 0.00 | 0.00 | 0.00 | 40 | 1013.2 |
| 20260504233506 | 23 | 166 | 1.6 | 4.8 | 0.00 | 0.00 | 0.00 | 41 | 1013.2 |
| 20260504233005 | 23 | 135 | 3.2 | 4.8 | 0.00 | 0.00 | 0.00 | 40 | 1013.2 |
| 20260504232504 | 23 | 161 | 0.0 | 4.8 | 0.00 | 0.00 | 0.00 | 40 | 1013.2 |
| 20260504232005 | 23 | 153 | 1.6 | 4.8 | 0.00 | 0.00 | 0.00 | 39 | 1013.2 |
| 20260504231505 | 23 | 14 | 1.6 | 4.8 | 0.00 | 0.00 | 0.00 | 39 | 1013.2 |
| 20260504231006 | 23 | 142 | 3.2 | 9.7 | 0.00 | 0.00 | 0.00 | 38 | 1013.2 |
| 20260504230505 | 23 | 126 | 1.6 | 4.8 | 0.00 | 0.00 | 0.00 | 37 | 1013.2 |
| 20260504230005 | 23 | 122 | 1.6 | 4.8 | 0.00 | 0.00 | 0.00 | 37 | 1013.2 |
| 20260504225506 | 24 | 253 | 1.6 | 4.8 | 0.00 | 0.00 | 0.00 | 37 | 1013.2 |
| 20260504225006 | 24 | 131 | 3.2 | 8.0 | 0.00 | 0.00 | 0.00 | 36 | 1013.2 |
| 20260504224006 | 24 | 78 | 1.6 | 4.8 | 0.00 | 0.00 | 0.00 | 36 | 1013.2 |
| 20260504223505 | 24 | 197 | 1.6 | 4.8 | 0.00 | 0.00 | 0.00 | 36 | 1013.2 |
| 20260504223005 | 24 | 181 | 1.6 | 4.8 | 0.00 | 0.00 | 0.00 | 36 | 1013.2 |
| 20260504222505 | 25 | 193 | 1.6 | 4.8 | 0.00 | 0.00 | 0.00 | 35 | 1013.2 |
| 20260504222006 | 25 | 145 | 1.6 | 4.8 | 0.00 | 0.00 | 0.00 | 36 | 1013.2 |
| 20260504221505 | 25 | 206 | 1.6 | 4.8 | 0.00 | 0.00 | 0.00 | 35 | 1013.2 |
| 20260504221006 | 25 | 65 | 1.6 | 9.7 | 0.00 | 0.00 | 0.00 | 36 | 1013.2 |
| 20260504220505 | 25 | 103 | 1.6 | 4.8 | 0.00 | 0.00 | 0.00 | 36 | 1013.2 |
| 20260504220005 | 25 | 11 | 0.0 | 8.0 | 0.00 | 0.00 | 0.00 | 36 | 1013.1 |
| 20260504215504 | 25 | 168 | 1.6 | 4.8 | 0.00 | 0.00 | 0.00 | 36 | 1013.1 |
| 20260504214005 | 25 | 126 | 3.2 | 11.3 | 0.00 | 0.00 | 0.00 | 37 | 1013.1 |
| 20260504213506 | 25 | 193 | 3.2 | 11.3 | 0.00 | 0.00 | 0.00 | 38 | 1013.1 |
| 20260504213007 | 25 | 79 | 1.6 | 11.3 | 0.00 | 0.00 | 0.00 | 39 | 1013.1 |
| 20260504212005 | 25 | 219 | 1.6 | 8.0 | 0.00 | 0.00 | 0.00 | 40 | 1013.1 |
| 20260504211505 | 25 | 52 | 0.0 | 3.2 | 0.00 | 0.00 | 0.00 | 40 | 1013.1 |
| 20260504211005 | 25 | 109 | 0.0 | 3.2 | 0.00 | 0.00 | 0.00 | 39 | 1013.1 |
| 20260504210505 | 26 | 74 | 0.0 | 8.0 | 0.00 | 0.00 | 0.00 | 41 | 1013.1 |
| 20260504205505 | 25 | 299 | 1.6 | 4.8 | 0.00 | 0.00 | 0.00 | 39 | 1013.1 |
| 20260504205005 | 25 | 290 | 1.6 | 4.8 | 0.00 | 0.00 | 0.00 | 35 | 1013.1 |
| 20260504204005 | 26 | 211 | 1.6 | 8.0 | 0.00 | 0.00 | 0.00 | 36 | 1013.7 |
| 20260504203506 | 26 | 153 | 0.0 | 4.8 | 0.00 | 0.00 | 0.00 | 36 | 1013.7 |
| 20260504203005 | 26 | 158 | 1.6 | 3.2 | 0.00 | 0.00 | 0.00 | 35 | 1013.7 |
| 20260504202505 | 26 | 12 | 1.6 | 3.2 | 0.00 | 0.00 | 0.00 | 35 | 1013.7 |
| 20260504202005 | 27 | 173 | 0.0 | 4.8 | 0.00 | 0.00 | 0.00 | 33 | 1013.7 |
| 20260504201505 | 26 | 124 | 3.2 | 4.8 | 0.00 | 0.00 | 0.00 | 33 | 1013.7 |
| 20260504201005 | 26 | 168 | 1.6 | 4.8 | 0.00 | 0.00 | 0.00 | 31 | 1013.7 |
| 20260504200505 | 26 | 144 | 1.6 | 4.8 | 0.00 | 0.00 | 0.00 | 30 | 1013.7 |
| 20260504200005 | 26 | 53 | 0.0 | 4.8 | 0.00 | 0.00 | 0.00 | 31 | 1013.7 |
| 20260504195504 | 27 | 100 | 1.6 | 4.8 | 0.00 | 0.00 | 0.00 | 29 | 1013.7 |
| 20260504195006 | 27 | 113 | 0.0 | 9.7 | 0.00 | 0.00 | 0.00 | 32 | 1014.6 |
| 20260504194506 | 26 | 124 | 1.6 | 9.7 | 0.00 | 0.00 | 0.00 | 35 | 1014.6 |
| 20260504194005 | 26 | 278 | 0.0 | 8.0 | 0.00 | 0.00 | 0.00 | 34 | 1014.6 |
| 20260504193507 | 26 | 131 | 1.6 | 8.0 | 0.00 | 0.00 | 0.00 | 34 | 1014.6 |
| 20260504192504 | 25 | 257 | 1.6 | 4.8 | 0.00 | 0.00 | 0.00 | 37 | 1014.6 |
| 20260504191505 | 26 | 274 | 1.6 | 4.8 | 0.00 | 0.00 | 0.00 | 39 | 1014.6 |
| 20260504191005 | 26 | 247 | 3.2 | 11.3 | 0.00 | 0.00 | 0.00 | 37 | 1014.6 |
| 20260504190505 | 26 | 252 | 3.2 | 4.8 | 0.00 | 0.00 | 0.00 | 37 | 1014.6 |
| 20260504190006 | 25 | 293 | 1.6 | 4.8 | 0.00 | 0.00 | 0.00 | 37 | 1017.3 |
| 20260504185005 | 25 | 359 | 1.6 | 4.8 | 0.00 | 0.00 | 0.00 | 38 | 1017.3 |
| 20260504184505 | 26 | 210 | 1.6 | 4.8 | 0.00 | 0.00 | 0.00 | 39 | 1017.3 |
| 20260504184007 | 26 | 135 | 3.2 | 8.0 | 0.00 | 0.00 | 0.00 | 38 | 1017.3 |
| 20260504183505 | 25 | 91 | 3.2 | 9.7 | 0.00 | 0.00 | 0.00 | 40 | 1017.3 |
| 20260504183005 | 25 | 276 | 1.6 | 8.0 | 0.00 | 0.00 | 0.00 | 41 | 1017.3 |
| 20260504182505 | 25 | 170 | 0.0 | 3.2 | 0.00 | 0.00 | 0.00 | 42 | 1017.3 |
| 20260504181505 | 25 | 10 | 0.0 | 8.0 | 0.00 | 0.00 | 0.00 | 42 | 1017.3 |
| 20260504181005 | 25 | 241 | 3.2 | 9.7 | 0.00 | 0.00 | 0.00 | 41 | 1017.3 |
| 20260504180506 | 25 | 198 | 1.6 | 8.0 | 0.00 | 0.00 | 0.00 | 44 | 1017.3 |
| 20260504180005 | 25 | 197 | 1.6 | 8.0 | 0.00 | 0.00 | 0.00 | 44 | 1017.3 |
| 20260504175505 | 25 | 280 | 0.0 | 11.3 | 0.00 | 0.00 | 0.00 | 44 | 1017.3 |
| 20260504175005 | 25 | 235 | 0.0 | 4.8 | 0.00 | 0.00 | 0.00 | 43 | 1017.3 |
| 20260504174505 | 25 | 13 | 1.6 | 11.3 | 0.00 | 0.00 | 0.00 | 44 | 1017.3 |
| 20260504174006 | 25 | 97 | 1.6 | 4.8 | 0.00 | 0.00 | 0.00 | 45 | 1017.3 |
| 20260504173505 | 25 | 344 | 0.0 | 0.0 | 0.00 | 0.00 | 0.00 | 45 | 1017.3 |
| 20260504173006 | 23 | 69 | 0.0 | 0.0 | 0.00 | 0.00 | 0.00 | 46 | 1017.3 |
| 20260504172006 | 24 | 254 | 0.0 | 0.0 | 0.00 | 0.00 | 0.00 | 45 | 1017.3 |
| 20260504171504 | 23 | 46 | 1.6 | 4.8 | 0.00 | 0.00 | 0.00 | 47 | 1017.3 |
| 20260504171005 | 23 | 260 | 0.0 | 4.8 | 0.00 | 0.00 | 0.00 | 48 | 1017.3 |
| 20260504170505 | 22 | 30 | 0.0 | 4.8 | 0.00 | 0.00 | 0.00 | 47 | 1017.3 |
| 20260504151006 | 21 | 217 | 0.0 | 11.3 | 0.00 | 0.00 | 0.00 | 50 | 1017.3 |
| 20260504150505 | 21 | 155 | 0.0 | 9.7 | 0.00 | 0.00 | 0.00 | 53 | 1017.3 |
| 20260504140505 | 17 | 289 | 3.2 | 8.0 | 0.00 | 0.00 | 0.00 | 58 | 1016.7 |
| 20260504130505 | 12 | 246 | 0.0 | 1.6 | 0.00 | 0.00 | 0.00 | 83 | 1016.7 |
| 20260504110507 | 5 | 281 | 0.0 | 0.0 | 0.00 | 0.00 | 0.00 | 93 | 1016.7 |
| 20260504100505 | 5 | 281 | 0.0 | 0.0 | 0.00 | 0.00 | 0.00 | 93 | 1016.4 |
| 20260504082005 | 5 | 281 | 0.0 | 0.0 | 0.00 | 0.00 | 0.00 | 92 | 1016.4 |
| 20260504081505 | 5 | 281 | 0.0 | 0.0 | 0.00 | 0.00 | 0.00 | 92 | 1016.4 |
| 20260504080505 | 6 | 281 | 0.0 | 0.0 | 0.00 | 0.00 | 0.00 | 92 | 1016.8 |